Regional Weather Roundup
Issued by NWS Sioux Falls, SD

Home | Current Version | Previous Version | Text Only | Print | Product List | Glossary On
Versions: 1 2 3 4 5 6 7 8 9 10 11 12 13 14 15 16 17 18 19 20 21 22 23 24 25 26 27 28 29 30 31 32 33 34 35 36 37 38 39 40 41 42 43 44 45 46 47 48 49 50
000
ASUS43 KFSD 261610
RWRFSD

WEATHER ROUNDUP FOR SE SOUTH DAKOTA/SW MINNESOTA/NW IOWA
NATIONAL WEATHER SERVICE SIOUX FALLS SD
1000 AM CST WED NOV 26 2014

NOTE: "FAIR" INDICATES FEW OR NO CLOUDS BELOW 12,000 FEET WITH NO
SIGNIFICANT WEATHER AND OR OBSTRUCTIONS TO VISIBILITY.


SDZ038>040-050-052>070-261700-
SOUTHEAST SOUTH DAKOTA

CITY           SKY/WX    TMP DP  RH WIND       PRES   REMARKS
CHAMBERLAIN    PTSUNNY   17  10  75 N9        30.30R WCI   5
HURON          CLOUDY    10   4  76 N22G28    30.31R WCI -10
MADISON        PTSUNNY   16  16 100 N21G26    30.17R WCI  -2
MITCHELL       LGT SNOW  14   9  80 N21       30.30R WCI  -4
SIOUX FALLS    PTSUNNY   21  16  81 N23G29    30.17R WCI   5
WINNER         CLOUDY    22  16  78 N15       30.30R WCI   9
YANKTON        CLOUDY    21  16  79 NW23G30   30.21R WCI   5
$$

MNZ071-072-080-081-089-090-097-098-261700-
SOUTHWEST MINNESOTA

CITY           SKY/WX    TMP DP  RH WIND       PRES   REMARKS
FAIRMONT       CLOUDY    27  23  86 N12       30.07R WCI  16
JACKSON        LGT SNOW  27  21  80 VRB15G24  30.07R WCI  15
LUVERNE        MOSUNNY   27  19  74 N20G29    30.11R WCI  13
MARSHALL       CLOUDY    18  10  73 N28       30.18R WCI  -1
MONTEVIDEO     MOSUNNY   19  16  86 N21G28    30.22R WCI   3
PIPESTONE      MOSUNNY   19  16  86 NE15G31   30.12R WCI   5
REDWOOD FALLS  LGT SNOW  24  20  84 N13       30.17R FOG     WCI  12
TRACY          LGT SNOW  22  20  92 N20G26    30.15R WCI   7
WINDOM         LGT SNOW  23  21  93 N21       30.10R VSB 1   WCI   8
WORTHINGTON    CLOUDY    21  18  86 N25       30.09R WCI   4
$$

IAZ001>003-012>014-020>022-031-032-NEZ013-014-SDZ071-261700-
NORTHWEST IOWA

CITY           SKY/WX    TMP DP  RH WIND       PRES   REMARKS
CHEROKEE       LGT SNOW  28  26  93 N17G23    30.04R WCI  16
DENISON        CLOUDY    30  30 100 N14G20    29.96R WCI  20
ESTHERVILLE    LGT SNOW  26  23  88 N17       30.06R FOG     WCI  13
LE MARS        CLOUDY    27  23  86 N18G26    30.10R WCI  13
ORANGE CITY    PTSUNNY   27  21  80 N14G24    30.08R HAZE    WCI  15
SHELDON        MIX PCPN  25  23  93 N24       30.07R WCI   9
SIOUX CITY     CLOUDY    30  25  81 N25       30.09R WCI  16
SPENCER        LGT SNOW  27  23  85 N18       30.05R VSB 1   WCI  14
STORM LAKE     LGT RAIN  27  25  93 N20       30.00R WCI  13
$$

ABBREVIATIONS USED IN REMARKS
   TC - TEMPERATURE IN CELSIUS
  WCI - WIND CHILL INDEX
   HX - HEAT INDEX
  VSB - VISIBILITY



USA.gov is the U.S. government's official web portal to all federal, state and local government web resources and services.